Regional Weather Roundup
Issued by NWS San Diego, CA

Home | Current Version | Previous Version | Text Only | Print | Product List | Glossary On
Versions: 1 2 3 4 5 6 7 8 9 10 11 12 13 14 15 16 17 18 19 20 21 22 23 24 25 26 27 28 29 30 31 32 33 34 35 36 37 38 39 40 41 42 43 44 45 46 47 48 49 50
000
ASUS46 KSGX 201911
RWRSGX

SAN DIEGO HOURLY WEATHER ROUNDUP
NATIONAL WEATHER SERVICE SAN DIEGO CA
1100 AM PST FRI JAN 20 2017

NOTE: "FAIR" INDICATES FEW OR NO CLOUDS BELOW 12,000 FEET WITH NO
SIGNIFICANT WEATHER AND/OR OBSTRUCTIONS TO VISIBILITY.

CAZ042-043-060-061-PZZ750-775-202000-

GREATER SAN DIEGO AREA

CITY           SKY/WX    TMP DP  RH WIND       PRES   REMARKS
SAN DIEGO AP   RAIN      56  52  86 S22       29.78F
NATIONAL CITY    N/A     55  53  94 S6        29.77F
CHULA VISTA      N/A     53  53  98 SW2       29.71F
IMPERIAL BEACH LGT RAIN  57  53  86 S16G24    29.79F FOG
BROWN FIELD    RAIN      53  52  96 S10G21    29.77F FOG
MIRAMAR MCAS   LGT RAIN  57  53  86 S16G28    29.74F
MONTGOMERY FLD RAIN      53  50  89 S14       29.75F FOG

$$

NORTH SAN DIEGO COUNTY

CITY           SKY/WX    TMP DP  RH WIND       PRES   REMARKS
CAMP PENDLETON LGT RAIN  55  52  89 S22G32    29.68F FOG
OCEANSIDE AP   LGT RAIN  56  54  93 S15G25    29.69F FOG
OCEANSIDE HBR    N/A     56  54  94 E9        29.73F
VISTA            N/A     52  47  83 SE2       29.69F
CARLSBAD       LGT RAIN  54  53  97 S16G22    29.69F FOG
DEL MAR          N/A     54  53  95 SW9       29.75F
LA JOLLA SCRIP   N/A     55  53  93 S12       29.74F
FALLBROOK        N/A     51  51 100 S5        29.70F
ESCONDIDO        N/A     51  50  95 SE12      29.74F
SAN MARCOS       N/A     52  48  86 S8        29.74F
POWAY            N/A     51  49  92 S3        29.78F

$$

EAST SAN DIEGO COUNTY

CITY           SKY/WX    TMP DP  RH WIND       PRES   REMARKS
RAMONA         LGT RAIN  49  49 100 S14G25    29.72F FOG
SANTEE LAKES     N/A     52  51  95 SE3       29.76F
LA MESA          N/A     51  49  96 SW2       29.71F
JAMUL            N/A     50  48  93 CALM      29.79F
DESCANSO N       N/A     41  39  93 SW13      29.72F
CAMPO            N/A     45  45 100 S12       29.71F

$$

ORANGE COUNTY AND THE LOS ANGELES BASIN

CITY           SKY/WX    TMP DP  RH WIND       PRES   REMARKS
JOHN WAYNE AP  LGT RAIN  55  53  93 S16G29    29.63F FOG
LAGUNA BEACH     N/A     54  53  97 SE12      29.59F
LAKE FOREST FR   N/A     50  48  91 S3        29.57F
HUNTINGTON BCH   N/A     53  52  95 S17       29.63F
LOS ALAMITOS   RAIN      55  53  95 S17G26    29.60F FOG
FULLERTON      RAIN      55  53  93 S10G25    29.61F FOG
LONG BEACH     RAIN      55  50  83 S14G28    29.61F
L.A. AP        HVY RAIN  55  53  93 S12G20    29.58F FOG
L.A. DOWNTOWN  HVY RAIN  54  52  93 SE8       29.59F FOG

$$

THE INLAND EMPIRE

CITY           SKY/WX    TMP DP  RH WIND       PRES   REMARKS
CORONA         CLOUDY    52  48  87 NW3       29.63F
CHINO          LGT RAIN  50  50 100 VRB5      29.66F FOG
ONTARIO        HVY RAIN  49  49 100 CALM      29.63F FOG
SAN BERNARDINO CLOUDY    52  46  82 E8        29.64F
RIVERSIDE AP   LGT RAIN  52  50  93 SE5       29.64
MORENO VALLEY    N/A     48  48 100 SE8       27.78F
MARCH ARB      LGT RAIN  50  50 100 S12       29.63F
HORSETHIEF CYN   N/A     49  42  74 W9        29.66F
PERRIS           N/A     48  48  99 S6        29.67F
HEMET EAST       N/A     46  42  86 CALM      29.73F
FRENCH VALLEY  NOT AVBL
TEMECULA         N/A     50  50  99 S6        29.73F

$$

SAN BERNARDINO AND RIVERSIDE COUNTY MOUNTAINS

CITY           SKY/WX    TMP DP  RH WIND       PRES   REMARKS
BIG BEAR AP    LGT SNOW  32  28  86 W15G36    29.51F VSB 1   WCI  22
ANGELUS OAKS     N/A     31  29  92 CALM      29.59F
PINE COVE        N/A     31  31 100 CALM      29.74F

$$

SOUTHERN DESERT INCLUDING THE COACHELLA VALLEY

CITY           SKY/WX    TMP DP  RH WIND       PRES   REMARKS
PALM SPRINGS   PTSUNNY   58  46  64 N6        29.63F
PALM DESERT      N/A     60  46  59 N3          N/A
THERMAL        PTSUNNY   64  45  49 VRB3      29.61F
BLYTHE         CLOUDY    57  42  57 S16       29.69F
IMPERIAL AP    CLOUDY    61  44  53 SE6       29.67F
EL CENTRO NAS  CLOUDY    62  42  47 SE14      29.68F
YUMA AZ        CLOUDY    60  42  51 S20       29.73
MEXICALI       CLOUDY    59  50  72 SE17      29.71F

$$

UPPER DESERT

CITY           SKY/WX    TMP DP  RH WIND       PRES   REMARKS
VICTORVILLE AP MOSUNNY   48  36  61 S37G51    29.47F HAZE
HESPERIA         N/A     45  40  82 SW8       29.65F
PALMDALE       CLOUDY    51  40  65 S28G36    29.47F
LANCASTER      LGT RAIN  47  41  80 SW14G21   29.50F
EDWARDS AFB    LGT RAIN  50  43  76 SW16      29.46F
DAGGETT        CLOUDY    48  42  80 E10       29.54F
29 PALMS N     PTSUNNY   52  37  56 SW14      29.66F
NEEDLES        CLOUDY    55  43  63 S9        29.64F

$$

REGIONAL REPORTS

CITY           SKY/WX    TMP DP  RH WIND       PRES   REMARKS
SANTA BARBARA  LGT RAIN  53  52  96 CALM      29.49F
SANDBERG       LGT RAIN  39  38  96 S25G35    29.46F VSB<1/4 WCI  28
LAS VEGAS NV   LGT RAIN  47  40  76 SE9       29.54F
PHOENIX AZ     CLOUDY    51  46  83 SE10      29.78F
TIJUANA        LGT RAIN  54  48  82 S15       29.81F FOG
ENSENADA NW      N/A     54  32  43 SE2       29.83F

$$

OFFSHORE ISLANDS

CITY           SKY/WX    TMP DP  RH WIND       PRES   REMARKS
CATALINA ARPT  RAIN      51  50  96 S24G46    29.54F VSB 1
SAN CLEMENTE I LGT RAIN  56  53  90 S38G46    29.60F FOG
SAN NICOLAS IS LGT RAIN  55  55 100 S22G36    29.53F FOG

$$

MARINE AND OFFSHORE BUOY REPORTS

STATION/POSITION SKY/WX   TEMP    WIND        PRES    VSBY  SWELL
                          AIR SEA DIR/SP/G                  HT/PER/DIR
                          (F)     (DEG/KT/KT) (MB)    (MI)  (FT/S/D)
TANNER BANKS               59 59  190/ 25/ 31 1002.9F        10/260/15
S CLEMENTE BASIN           58 61  180/ 23/ 27 1005.5F        10/280/14
SAN NICOLAS IS.               59                N/A          10/300/14
SO. S. ROSA ISLA           58 57  250/ 21/ 29  999.7F        10/270/15
W. S. BARBARA CH           57 58  280/ 21/ 27  998.1F        10/290/15
M. S. BARBARA CH                                N/A           8/240/14
S. MONICA BASIN            57 59  190/ 23/ 35  999.4F         7/270/15
S PEDRO CHANNEL               60                N/A           7/270/14
CMP PENDLETON NS              59                N/A           3/250/12
OCEANSIDE OFFSHR              60                N/A           3/260/12
TORREY PINES OTR              60                N/A           7/290/13
POINT LOMA SOUTH              60                N/A           7/280/13

$$




USA.gov is the U.S. government's official web portal to all federal, state and local government web resources and services.